Regional Weather Roundup
Issued by NWS

Home | Current Version | Previous Version | Graphics & Text | Print | Product List | Glossary On
Versions: 1 2 3 4 5 6 7 8 9 10 11 12 13 14 15 16 17 18 19 20 21 22 23 24 25 26 27 28 29 30 31 32 33 34 35 36 37 38 39 40 41 42 43 44 45 46 47 48 49 50
000
ASUS43 KDMX 241508
RWRIA

WEATHER ROUNDUP FOR IOWA
NATIONAL WEATHER SERVICE DES MOINES IA
1000 AM CDT TUE MAY 24 2016

NOTE: "FAIR" INDICATES FEW OR NO CLOUDS BELOW 12,000 FEET WITH NO
SIGNIFICANT WEATHER AND/OR OBSTRUCTIONS TO VISIBILITY.

* - THESE STATIONS ARE NOT NWS STATIONS...THUS NOT UNDER NWS
QUALITY CONTROL.  THEY ALSO DO NOT REPORT WEATHER SUCH
AS PRECIPITATION OR FOG.

IAZ001>003-012>014-020>022-031>034-043>046-241600-
   NORTHWEST IOWA

CITY           SKY/WX    TMP DP  RH WIND       PRES   REMARKS
CARROLL *      SUNNY     68  64  88 SW12      29.91R
CHEROKEE *     PTSUNNY   68  64  88 SW9       29.89S
DENISON *      SUNNY     66  63  88 SW6       29.88S
LE MARS *      SUNNY     66  63  88 S10       29.88F
ORANGE CITY *  MOSUNNY   64  63  94 S9        29.88S FOG
SHELDON *      MOSUNNY   64  64 100 S12       29.88R
SIOUX CITY     CLOUDY    66  61  84 SE5       29.88S
SPENCER        CLOUDY    69  61  75 SW12      29.89S
STORM LAKE *   SUNNY     68  63  83 SW13      29.90S
$$

IAZ055>058-069>071-079>083-090>094-241600-
   SOUTHWEST IOWA

CITY           SKY/WX    TMP DP  RH WIND       PRES   REMARKS
ATLANTIC *     SUNNY     66  64  94 SW9       29.92R
AUDUBON *        N/A     66  63  88 SW5       29.92R
CLARINDA *       N/A     68  64  88 MISG      29.94S
COUNCIL BLFS * SUNNY     64  64 100 S6        29.91S
CRESTON *      SUNNY     66  63  88 SW8       29.93R
HARLAN  *        N/A    N/A N/A N/A MISG        N/A
LAMONI         CLOUDY    70  64  81 SW7       29.92R
RED OAK *      SUNNY     68  64  88 W6        29.92S
SHENANDOAH *   SUNNY     66  66 100 SW6       29.93R
$$

IAZ047>049-059>061-072>074-084-241600-
   CENTRAL IOWA

CITY           SKY/WX    TMP DP  RH WIND       PRES   REMARKS
AMES           PTSUNNY   69  63  81 SW7       29.91S
ANKENY *       MOSUNNY   68  66  94 MISG      29.91R
BOONE *        SUNNY     68  64  88 SW8       29.90R
CHARITON *     PTSUNNY   72  64  78 S12       29.92S
DES MOINES     CLOUDY    68  61  78 S5        29.91S
GRINNELL*      CLOUDY    70  59  68 S8        29.93F
KNOXVILLE *    CLOUDY    72  63  73 S9G15     29.91R
MARSHALLTOWN   CLOUDY    71  62  73 S8        29.90F
NEWTON *       PTSUNNY   70  64  83 S8        29.92S
PERRY *          N/A     70  66  88 SW12      29.90R
$$

IAZ004>006-015-016-023>025-035-036-241600-
   NORTH CENTRAL IOWA

CITY           SKY/WX    TMP DP  RH WIND       PRES   REMARKS
ALGONA *       SUNNY     70  61  73 SW9       29.90S
CLARION *      MOSUNNY   68  64  88 SW10      29.91S
ESTHERVILLE    MOSUNNY   68  62  81 SW12      29.88S
FORT DODGE *   PTSUNNY   66  61  82 SW8       29.91S
MASON CITY     MOSUNNY   69  62  78 SW9       29.92S
FOREST CITY *  SUNNY     66  59  77 SW8       29.90F
WEBSTER CITY * MOSUNNY   68  64  88 SW8       29.89S
IOWA FALLS *     N/A     72  63  73 SW7       29.92S
$$

IAZ007>011-017>019-026>030-037>042-050>054-066-241600-
   NORTHEAST IOWA

CITY           SKY/WX    TMP DP  RH WIND       PRES   REMARKS
CEDAR RAPIDS   PTSUNNY   69  65  86 S9        29.93F
CHARLES CITY * MOSUNNY   70  63  78 VRB5      29.93R
CLINTON *      CLOUDY    76  60  57 S10       29.96S
DECORAH *      PTSUNNY   68  63  83 VRB6      29.92S
DUBUQUE        RAIN      70  60  70 SW8       29.95R
MONTICELLO *   MOSUNNY   73  63  68 S8        29.93F
OELWEIN *      MOSUNNY   73  63  68 SW12G17   29.93S
$$

IAZ064-065-067-068-078-241600-
   EAST CENTRAL IOWA

CITY           SKY/WX    TMP DP  RH WIND       PRES   REMARKS
DAVENPORT      MOSUNNY   75  59  57 S10       29.96S
IOWA CITY      PTSUNNY   72  61  68 S7        29.96S
MT. PLEASANT * CLOUDY    77  63  61 S9        29.97R
MUSCATINE *    MOSUNNY   77  61  57 SE10      29.94F
QUAD CITIES    SUNNY     76  60  57 S7        29.96R
$$

IAZ062-063-075>077-085>089-095>099-241600-
   SOUTHEAST IOWA

CITY           SKY/WX    TMP DP  RH WIND       PRES   REMARKS
BURLINGTON     CLOUDY    74  62  66 VRB6      29.97R
FAIRFIELD *      N/A    N/A N/A N/A MISG        N/A
FORT MADISON * SUNNY     73  63  68 SW5       29.98R
KEOKUK *       SUNNY     75  63  64 S9        29.97R
OTTUMWA        CLOUDY    72  62  71 S12       29.93F
WASHINGTON *   SUNNY     75  63  64 S10       29.96F
$$

ABBREVIATIONS USED IN REMARKS
   TC - TEMPERATURES IN CELSIUS
  WCI - WIND CHILL INDEX
   HX - HEAT INDEX
  VSB - VISIBILITY
$$





USA.gov is the U.S. government's official web portal to all federal, state and local government web resources and services.